Houghton, MI

1:38 AM EDT on June 25, 2017 (GMT -0400)
Houghton County Memorial

Weather History for KCMX - December, 2011

Change the Weather History Date:

Monday, December 12, 2011

  Actual Average Record
Temperature  
Mean Temperature 34 °F -  
Max Temperature 35 °F 27 °F 44 °F (1998)
Min Temperature 32 °F 14 °F -6 °F (2013)
Degree Days  
Heating Degree Days 32    
Moisture  
Dew Point 32 °F    
Average Humidity 94    
Maximum Humidity 100    
Minimum Humidity 75    
Precipitation  
Precipitation 0.00 in - - ()
Sea Level Pressure  
Sea Level Pressure 30.20 in    
Wind  
Wind Speed 5 mph (North)    
Max Wind Speed 13 mph    
Max Gust Speed 20 mph    
Visibility 2 miles    
Events Fog , Rain    
Averages and records for this station are not official NWS values.
T = Trace of Precipitation, MM = Missing Value Source: NWS Daily Summary

Daily Weather History Graph

Daily Weather History Graph

Search for Another Location

Airport or City:

Trip Planner

Search our weather history database for the weather conditions in past years. The results will help you decide how hot, cold, wet, or windy it might be!

Date:

Astronomy

Dec. 12, 2011 Rise Set
Actual Time 8:31 AM EST 5:04 PM EST
Civil Twilight 7:55 AM EST 5:39 PM EST
Nautical Twilight 7:16 AM EST 6:18 PM EST
Astronomical Twilight 6:39 AM EST 6:55 PM EST
Moon 7:18 PM EST (12/12) 10:00 AM EST (12/12)
Length of Visible Light 9h 44m
Length of Day
8h 33m
Waning Gibbous, 96% of the Moon is Illuminated
Dec 12
Waning Gibbous
Dec 17
Last Quarter
Dec 24
New
Jan 1
First Quarter
Jan 9
Full

Hourly Weather History & Observations

Time (EST) Temp. Windchill Dew Point Humidity Pressure Visibility Wind Dir Wind Speed Gust Speed Precip Events Conditions
12:18 AM 33.8 °F 24.8 °F 26.6 °F 75% 30.09 in 8.0 mi West 12.7 mph - N/A   Mostly Cloudy
12:53 AM 33.1 °F 24.4 °F 26.1 °F 75% 30.14 in 7.0 mi West 11.5 mph 19.6 mph N/A   Overcast
1:53 AM 33.1 °F 24.4 °F 27.0 °F 78% 30.14 in 5.0 mi West 11.5 mph - N/A   Haze
2:53 AM 34.0 °F 26.0 °F 28.0 °F 79% 30.15 in 5.0 mi WSW 10.4 mph - N/A   Haze
3:53 AM 34.0 °F 28.0 °F 28.9 °F 82% 30.15 in 5.0 mi West 6.9 mph - N/A   Haze
4:11 AM 33.8 °F 28.6 °F 28.4 °F 81% 30.13 in 5.0 mi WSW 5.8 mph - N/A   Haze
4:53 AM 32.0 °F 27.5 °F 28.9 °F 88% 30.16 in 4.0 mi SSW 4.6 mph - N/A   Overcast
5:25 AM 32.0 °F 28.7 °F 28.4 °F 87% 30.13 in 4.0 mi SSW 3.5 mph - N/A   Overcast
5:53 AM 33.1 °F 28.7 °F 28.9 °F 85% 30.17 in 4.0 mi SSW 4.6 mph - N/A   Overcast
6:53 AM 33.1 °F - 30.0 °F 89% 30.17 in 4.0 mi Calm Calm - N/A   Overcast
7:30 AM 33.8 °F - 30.2 °F 87% 30.14 in 2.5 mi Calm Calm - N/A   Overcast
7:40 AM 33.8 °F - 30.2 °F 87% 30.14 in 3.0 mi Calm Calm - N/A   Overcast
7:53 AM 33.1 °F 28.7 °F 30.9 °F 92% 30.19 in 3.0 mi South 4.6 mph - N/A   Overcast
8:23 AM 33.8 °F 29.6 °F 30.2 °F 87% 30.17 in 3.0 mi SSW 4.6 mph - N/A   Overcast
8:53 AM 33.8 °F - 30.2 °F 87% 30.16 in 3.0 mi Calm Calm - N/A   Overcast
9:17 AM 33.8 °F - 30.2 °F 87% 30.16 in 1.8 mi Calm Calm - N/A   Overcast
9:44 AM 33.8 °F - 32.0 °F 93% 30.17 in 1.5 mi Calm Calm - N/A   Overcast
9:53 AM 34.0 °F - 32.0 °F 92% 30.21 in 1.5 mi Calm Calm - N/A   Overcast
10:30 AM 33.8 °F - 33.8 °F 100% 30.18 in 0.8 mi Calm Calm - 0.00 in Rain Light Rain
10:43 AM 33.8 °F - 33.8 °F 100% 30.18 in 0.5 mi Calm Calm - 0.00 in Fog , Rain Light Rain
10:53 AM 34.0 °F - 33.1 °F 96% 30.22 in 0.5 mi Calm Calm - 0.00 in Fog , Rain Light Rain
11:19 AM 33.8 °F - 33.8 °F 100% 30.18 in 0.5 mi Calm Calm - 0.00 in Fog Fog
11:26 AM 33.8 °F - 33.8 °F 100% 30.18 in 0.2 mi Calm Calm - 0.00 in Fog Fog
11:41 AM 35.6 °F - 33.8 °F 93% 30.19 in 0.5 mi Calm Calm - 0.00 in Fog Fog
11:53 AM 34.0 °F 29.8 °F 33.1 °F 96% 30.23 in 0.5 mi South 4.6 mph - 0.00 in Fog Fog
12:00 PM 33.8 °F 29.6 °F 33.8 °F 100% 30.19 in 0.5 mi South 4.6 mph - 0.00 in Fog , Rain Light Rain
12:08 PM 33.8 °F - 33.8 °F 100% 30.18 in 0.2 mi Calm Calm - N/A Fog , Rain Light Rain
12:18 PM 33.8 °F 30.8 °F 33.8 °F 100% 30.18 in 0.2 mi NNE 3.5 mph - 0.00 in Fog , Rain Light Rain
12:31 PM 35.6 °F - 33.8 °F 93% 30.18 in 0.5 mi Calm Calm - 0.00 in Fog Fog
12:42 PM 33.8 °F - 33.8 °F 100% 30.18 in 0.2 mi Calm Calm - 0.00 in Fog Fog
12:53 PM 34.0 °F - 34.0 °F 100% 30.22 in 0.2 mi Calm Calm - 0.00 in Fog Fog
12:58 PM 35.6 °F 32.8 °F 33.8 °F 93% 30.18 in 0.2 mi South 3.5 mph - N/A Fog Fog
1:18 PM 35.6 °F - 33.8 °F 93% 30.18 in 0.2 mi Calm Calm - N/A Fog Fog
1:53 PM 35.1 °F - 34.0 °F 96% 30.22 in 0.2 mi Calm Calm - N/A Fog Fog
2:16 PM 35.6 °F - 35.6 °F 100% 30.17 in 1.0 mi Calm Calm - N/A   Overcast
2:29 PM 33.8 °F - 33.8 °F 100% 30.17 in 0.8 mi Calm Calm - N/A   Overcast
2:44 PM 33.8 °F - 33.8 °F 100% 30.17 in 0.2 mi Calm Calm - N/A Fog Fog
2:53 PM 35.1 °F - 34.0 °F 96% 30.21 in 0.2 mi Calm Calm - N/A Fog Fog
3:40 PM 35.6 °F 28.6 °F 33.8 °F 93% 30.16 in 0.5 mi North 9.2 mph - N/A Fog Fog
3:51 PM 35.6 °F 32.8 °F 35.6 °F 100% 30.17 in 1.0 mi NE 3.5 mph - N/A   Overcast
3:53 PM 35.1 °F 32.2 °F 35.1 °F 100% 30.22 in 1.0 mi NE 3.5 mph - N/A   Overcast
4:18 PM 35.6 °F - 33.8 °F 93% 30.19 in 1.2 mi Calm Calm - N/A   Overcast
4:27 PM 35.6 °F - 33.8 °F 93% 30.19 in 0.2 mi Calm Calm - N/A Fog Fog
4:53 PM 34.0 °F - 34.0 °F 100% 30.25 in 0.2 mi Calm Calm - N/A Fog Fog
5:24 PM 33.8 °F - 33.8 °F 100% 30.21 in 0.5 mi Calm Calm - N/A Fog Fog
5:44 PM 33.8 °F - 33.8 °F 100% 30.21 in 0.2 mi Calm Calm - N/A Fog Fog
5:51 PM 33.8 °F 30.8 °F 33.8 °F 100% 30.21 in 0.8 mi North 3.5 mph - N/A   Overcast
5:52 PM 34.0 °F 31.0 °F 33.1 °F 96% 30.25 in 1.0 mi North 3.5 mph - N/A   Overcast
6:12 PM 33.8 °F 30.8 °F 33.8 °F 100% 30.22 in 1.5 mi North 3.5 mph - N/A   Overcast
6:32 PM 33.8 °F 29.6 °F 33.8 °F 100% 30.23 in 0.8 mi North 4.6 mph - N/A   Overcast
6:53 PM 34.0 °F 29.8 °F 34.0 °F 100% 30.27 in 0.8 mi NNE 4.6 mph - N/A   Overcast
7:01 PM 33.8 °F 28.6 °F 33.8 °F 100% 30.23 in 1.0 mi North 5.8 mph - N/A   Overcast
7:40 PM 33.8 °F 27.7 °F 33.8 °F 100% 30.23 in 2.0 mi NNE 6.9 mph - N/A   Overcast
7:53 PM 34.0 °F 28.0 °F 34.0 °F 100% 30.28 in 2.0 mi North 6.9 mph - N/A   Overcast
8:01 PM 33.8 °F 28.6 °F 33.8 °F 100% 30.24 in 1.8 mi NNE 5.8 mph - N/A   Overcast
8:25 PM 33.8 °F 27.7 °F 33.8 °F 100% 30.25 in 2.0 mi NNE 6.9 mph - N/A   Overcast
8:50 PM 33.8 °F 25.3 °F 33.8 °F 100% 30.26 in 1.8 mi NNE 11.5 mph - N/A   Overcast
8:53 PM 34.0 °F 27.2 °F 33.1 °F 96% 30.30 in 1.5 mi NNE 8.1 mph - N/A   Overcast
9:37 PM 33.8 °F 27.7 °F 33.8 °F 100% 30.26 in 2.0 mi NNE 6.9 mph - N/A   Overcast
9:53 PM 33.1 °F 25.5 °F 33.1 °F 100% 30.31 in 2.5 mi NNE 9.2 mph - N/A   Overcast
10:53 PM 33.1 °F 25.5 °F 32.0 °F 96% 30.32 in 2.0 mi NNE 9.2 mph - N/A   Overcast
11:50 PM 33.8 °F 27.0 °F 32.0 °F 93% 30.29 in 3.0 mi NE 8.1 mph - N/A   Overcast
11:53 PM 33.1 °F 26.9 °F 32.0 °F 96% 30.33 in 3.0 mi NE 6.9 mph - N/A   Overcast